Bedford, MA

2:42 PM EDT on September 26, 2017 (GMT -0400)
Hanscom

Weather History for KBED - February, 2012

Change the Weather History Date:

Tuesday, February 7, 2012

  Actual Average Record
Temperature  
Mean Temperature 34 °F -  
Max Temperature 44 °F 32 °F 48 °F (1960)
Min Temperature 24 °F 14 °F -7 °F (1993)
Degree Days  
Heating Degree Days 31    
Moisture  
Dew Point 22 °F    
Average Humidity 63    
Maximum Humidity 88    
Minimum Humidity 43    
Precipitation  
Precipitation 0.00 in - - ()
Sea Level Pressure  
Sea Level Pressure 30.06 in    
Wind  
Wind Speed 4 mph (NW)    
Max Wind Speed 10 mph    
Max Gust Speed -    
Visibility 10 miles    
Events      
Averages and records for this station are not official NWS values.
T = Trace of Precipitation, MM = Missing Value Source: NWS Daily Summary

Daily Weather History Graph

Daily Weather History Graph

Search for Another Location

Airport or City:

Trip Planner

Search our weather history database for the weather conditions in past years. The results will help you decide how hot, cold, wet, or windy it might be!

Date:

Astronomy

Feb. 07, 2012 Rise Set
Actual Time 6:52 AM EST 5:06 PM EST
Civil Twilight 6:23 AM EST 5:35 PM EST
Nautical Twilight 5:50 AM EST 6:09 PM EST
Astronomical Twilight 5:17 AM EST 6:41 PM EST
Moon 5:14 PM EST (2/7) 6:19 AM EST (2/7)
Length of Visible Light 11h 12m
Length of Day
10h 13m
Full, 100% of the Moon is Illuminated
Feb 7
Full
Feb 7
Full
Feb 14
Last Quarter
Feb 21
New
Feb 29
First Quarter

Hourly Weather History & Observations

Time (EST) Temp. Windchill Dew Point Humidity Pressure Visibility Wind Dir Wind Speed Gust Speed Precip Events Conditions
12:56 AM 32.0 °F - 21.9 °F 66% 29.91 in 10.0 mi Calm Calm - N/A   Clear
1:56 AM 27.0 °F 23.0 °F 21.9 °F 81% 29.92 in 10.0 mi West 3.5 mph - N/A   Clear
2:56 AM 27.0 °F - 21.9 °F 81% 29.93 in 10.0 mi Calm Calm - N/A   Clear
3:56 AM 28.0 °F - 21.9 °F 78% 29.94 in 10.0 mi Calm Calm - N/A   Clear
4:56 AM 25.0 °F - 21.9 °F 88% 29.95 in 10.0 mi Calm Calm - N/A   Clear
5:56 AM 24.1 °F - 21.0 °F 88% 29.97 in 10.0 mi Calm Calm - N/A   Clear
6:56 AM 24.1 °F 19.7 °F 21.0 °F 88% 29.98 in 10.0 mi West 3.5 mph - N/A   Clear
7:56 AM 30.9 °F - 26.1 °F 82% 30.00 in 10.0 mi Calm Calm - N/A   Overcast
8:56 AM 36.0 °F 32.1 °F 25.0 °F 64% 30.02 in 10.0 mi WSW 4.6 mph - N/A   Overcast
9:56 AM 39.9 °F 36.7 °F 26.1 °F 58% 30.03 in 10.0 mi West 4.6 mph - N/A   Overcast
10:56 AM 43.0 °F 37.2 °F 26.1 °F 51% 30.05 in 10.0 mi NW 10.4 mph - N/A   Overcast
11:56 AM 42.1 °F 37.1 °F 25.0 °F 51% 30.05 in 10.0 mi NNW 8.1 mph - N/A   Overcast
12:56 PM 42.1 °F 37.7 °F 25.0 °F 51% 30.05 in 10.0 mi NNW 6.9 mph - N/A   Overcast
1:56 PM 44.1 °F 39.0 °F 25.0 °F 47% 30.05 in 10.0 mi NNW 9.2 mph - N/A   Overcast
2:56 PM 43.0 °F 37.7 °F 24.1 °F 47% 30.06 in 10.0 mi NW 9.2 mph - N/A   Overcast
3:56 PM 43.0 °F 37.2 °F 21.9 °F 43% 30.08 in 10.0 mi NW 10.4 mph - N/A   Overcast
4:56 PM 39.9 °F 34.5 °F 21.0 °F 47% 30.09 in 10.0 mi NW 8.1 mph - N/A   Overcast
5:56 PM 37.9 °F 32.1 °F 21.0 °F 51% 30.12 in 10.0 mi North 8.1 mph - N/A   Overcast
6:56 PM 36.0 °F 32.1 °F 19.9 °F 52% 30.16 in 10.0 mi NNW 4.6 mph - N/A   Mostly Cloudy
7:56 PM 34.0 °F 26.6 °F 18.0 °F 52% 30.19 in 10.0 mi NW 9.2 mph - N/A   Clear
8:56 PM 30.0 °F 24.1 °F 17.1 °F 59% 30.22 in 10.0 mi NW 5.8 mph - N/A   Clear
9:56 PM 30.0 °F 25.2 °F 17.1 °F 59% 30.24 in 10.0 mi WNW 4.6 mph - N/A   Clear
10:56 PM 27.0 °F 21.6 °F 17.1 °F 66% 30.26 in 10.0 mi NW 4.6 mph - N/A   Clear
11:56 PM 26.1 °F 19.4 °F 16.0 °F 66% 30.28 in 10.0 mi NNW 5.8 mph - N/A   Clear